GW0774 Weather Reports


time (UTC)temp
C
wind
direction
speed
KPH
gust
KPH
rain 1hr
cm
rain 24hr
cm
rain mn
cm
humidity
%
barometer
mb
20260509022041 16 280 20.9 33.8 0.48 1.12 0.64 89 998.5
20260509021547 16 270 19.3 37.0 0.48 1.12 0.64 89 998.5
20260509021040 16 276 16.1 38.6 0.48 1.12 0.64 89 998.7
20260509020539 16 269 20.9 38.6 0.48 1.12 0.64 88 998.6
20260509020049 16 264 22.5 37.0 0.48 1.12 0.64 90 998.6
20260509015541 16 265 20.9 37.0 0.48 1.12 0.64 90 998.6
20260509015040 16 296 20.9 37.0 0.48 1.12 0.64 92 998.6
20260509014548 15 315 17.7 37.0 0.48 1.12 0.64 92 998.7
20260509014041 15 281 19.3 30.6 0.48 1.12 0.64 92 998.8
20260509013538 15 267 17.7 27.4 0.46 1.12 0.64 91 998.8
20260509013050 16 250 16.1 32.2 0.28 0.91 0.43 89 999.0
20260509012539 16 248 16.1 32.2 0.00 0.64 0.15 87 998.9
20260509012040 16 298 22.5 33.8 0.00 0.64 0.15 85 998.9
20260509011603 16 284 20.9 33.8 0.00 0.64 0.15 84 999.0
20260509011043 16 242 16.1 33.8 0.00 0.64 0.15 87 999.1
20260509010539 16 266 20.9 33.8 0.00 0.64 0.15 85 999.3
20260509010051 16 340 14.5 30.6 0.00 0.64 0.15 85 999.3
20260509005539 16 300 20.9 33.8 0.00 0.64 0.15 84 999.4
20260509005038 16 298 17.7 33.8 0.00 0.64 0.15 85 999.5
20260509004605 16 272 12.9 32.2 0.00 0.64 0.15 85 999.7
20260509004040 16 276 14.5 32.2 0.00 0.64 0.15 86 999.7
20260509003539 16 300 17.7 32.2 0.00 0.64 0.15 85 999.9
20260509003053 16 269 19.3 33.8 0.00 0.64 0.15 85 1000.2
20260509002538 16 312 20.9 33.8 0.00 0.64 0.15 86 1000.1
20260509002040 16 269 17.7 32.2 0.00 0.64 0.15 87 1000.1
20260509001548 16 294 16.1 32.2 0.00 0.61 0.13 89 1000.1
20260509001040 15 312 20.9 32.2 0.00 0.61 0.13 89 1000.1
20260509000539 15 321 16.1 32.2 0.00 0.61 0.13 92 1000.0
20260509000050 15 294 16.1 32.2 0.00 0.61 0.13 93 1000.0
20260508235542 15 281 19.3 38.6 0.00 0.61 0.13 92 999.9
20260508235041 15 306 20.9 38.6 0.00 0.61 0.13 91 999.9
20260508234549 15 261 19.3 51.5 0.00 0.61 0.13 88 999.8
20260508234040 16 292 27.4 51.5 0.00 0.61 0.13 83 999.6
20260508233539 16 292 22.5 43.5 0.00 0.61 0.13 78 999.5
20260508233050 17 338 16.1 32.2 0.00 0.61 0.13 79 999.4
20260508232546 16 274 16.1 32.2 0.00 0.61 0.13 80 999.5
20260508232039 16 300 12.9 30.6 0.00 0.61 0.13 80 999.7
20260508231554 16 306 16.1 30.6 0.00 0.61 0.13 80 999.8
20260508231039 16 277 14.5 29.0 0.00 0.61 0.13 78 999.8
20260508230539 16 257 11.3 22.5 0.00 0.61 0.13 77 999.6
20260508230046 17 279 9.7 22.5 0.00 0.61 0.13 78 999.6
20260508225539 17 317 4.8 14.5 0.00 0.61 0.13 78 999.7
20260508225040 17 249 3.2 17.7 0.00 0.61 0.13 78 999.6
20260508224545 17 274 6.4 17.7 0.00 0.61 0.13 78 999.8
20260508224039 17 289 9.7 17.7 0.00 0.61 0.13 77 1000.1
20260508223539 17 271 9.7 16.1 0.00 0.61 0.13 79 1000.1
20260508223050 17 226 6.4 17.7 0.00 0.61 0.13 79 1000.3
20260508222540 17 273 6.4 17.7 0.00 0.61 0.13 78 1000.1
20260508222039 17 259 6.4 14.5 0.00 0.61 0.13 78 1000.2
20260508221551 17 42 8.0 14.5 0.00 0.61 0.13 78 1000.2
20260508221041 18 279 4.8 11.3 0.00 0.61 0.13 79 1000.5
20260508220539 17 51 4.8 11.3 0.00 0.61 0.13 79 1000.5
20260508220054 17 257 3.2 12.9 0.00 0.61 0.13 80 1000.5
20260508215539 17 240 6.4 12.9 0.00 0.61 0.13 79 1000.5
20260508215039 17 289 4.8 14.5 0.00 0.61 0.13 78 1000.6
20260508214554 17 18 4.8 14.5 0.00 0.61 0.13 80 1000.5
20260508214038 17 260 0.0 14.5 0.00 0.61 0.13 81 1000.4
20260508213539 17 282 3.2 14.5 0.00 0.61 0.13 80 1000.3
20260508213045 16 292 3.2 12.9 0.00 0.61 0.13 81 1000.2
20260508212538 16 320 3.2 16.1 0.00 0.61 0.13 81 1000.1
20260508212035 16 201 3.2 16.1 0.00 0.61 0.13 82 1000.1
20260508211549 16 0 4.8 16.1 0.00 0.61 0.13 82 1000.0
20260508211039 16 265 0.0 16.1 0.00 0.61 0.13 83 1000.0
20260508210539 16 300 4.8 16.1 0.00 0.61 0.13 83 1000.0
20260508210050 16 269 3.2 12.9 0.00 0.61 0.13 84 999.9
20260508205538 15 234 4.8 12.9 0.00 0.61 0.13 85 999.8
20260508205038 15 252 1.6 12.9 0.00 0.61 0.13 86 999.7
20260508204549 15 279 4.8 12.9 0.00 0.61 0.13 86 999.7
20260508204042 15 219 4.8 9.7 0.00 0.61 0.13 86 999.7
20260508203538 15 277 1.6 9.7 0.00 0.61 0.13 87 999.8
20260508203051 15 279 3.2 11.3 0.00 0.61 0.13 86 999.8
20260508202540 15 251 3.2 14.5 0.00 0.61 0.13 86 999.9
20260508202039 15 273 1.6 14.5 0.00 0.61 0.13 87 1000.0
20260508201545 15 269 3.2 11.3 0.00 0.61 0.13 87 1000.0
20260508201042 15 245 4.8 14.5 0.00 0.61 0.13 88 1000.1
20260508200541 14 246 3.2 14.5 0.00 0.61 0.13 89 1000.0
20260508200046 14 100 3.2 12.9 0.00 0.61 0.13 90 1000.1
20260508195538 14 224 1.6 8.0 0.00 0.61 0.13 90 1000.0
20260508195038 13 300 1.6 12.9 0.00 0.61 0.13 90 1000.0
20260508194555 13 271 3.2 12.9 0.00 0.61 0.13 90 999.9
20260508194036 13 115 0.0 6.4 0.00 0.61 0.13 90 999.8
20260508193537 13 0 1.6 8.0 0.00 0.61 0.13 90 999.9
20260508193103 13 209 0.0 8.0 0.00 0.61 0.13 89 1000.0
20260508192537 13 106 1.6 8.0 0.00 0.61 0.13 90 999.9
20260508192037 13 263 1.6 9.7 0.00 0.61 0.13 90 1000.0
20260508191546 13 263 1.6 9.7 0.00 0.61 0.13 90 1000.0
20260508191036 13 111 1.6 8.0 0.00 0.61 0.13 90 1000.1
20260508190538 13 90 1.6 12.9 0.00 0.61 0.13 91 1000.1
20260508190046 13 284 3.2 12.9 0.00 0.61 0.13 92 1000.1
20260508185537 13 329 3.2 12.9 0.00 0.61 0.13 93 1000.3
20260508185036 13 240 0.0 6.4 0.00 0.61 0.13 93 1000.3
20260508184559 13 240 1.6 6.4 0.00 0.61 0.13 93 1000.3
20260508184037 13 0 0.0 4.8 0.00 0.61 0.13 93 1000.6
20260508183536 13 0 0.0 3.2 0.00 0.61 0.13 93 1000.5
20260508183048 13 0 0.0 6.4 0.00 0.61 0.13 93 1000.5
20260508182536 13 240 1.6 6.4 0.00 0.61 0.13 93 1000.6
20260508182036 13 240 0.0 4.8 0.00 0.61 0.13 93 1000.5
20260508181549 13 240 0.0 3.2 0.00 0.61 0.13 93 1000.4
20260508181039 13 240 0.0 3.2 0.00 0.61 0.13 93 1000.4
20260508180536 13 0 0.0 3.2 0.00 0.61 0.13 94 1000.3
20260508180050 13 174 0.0 4.8 0.00 0.61 0.13 94 1000.3
20260508175535 13 97 0.0 4.8 0.00 0.61 0.13 94 1000.4
20260508175039 13 78 1.6 4.8 0.00 0.61 0.13 94 1000.4
20260508174545 13 0 0.0 4.8 0.00 0.58 0.10 94 1000.5
20260508174036 13 219 0.0 4.8 0.00 0.58 0.10 94 1000.6
20260508173537 13 0 0.0 4.8 0.00 0.58 0.10 94 1000.6
20260508173044 12 0 1.6 4.8 0.00 0.58 0.10 95 1000.6
20260508172536 12 0 0.0 4.8 0.00 0.58 0.10 95 1000.6
20260508172036 12 0 0.0 0.0 0.00 0.58 0.10 94 1000.6
20260508171544 12 0 0.0 0.0 0.00 0.58 0.10 94 1000.5
20260508171039 12 0 0.0 0.0 0.00 0.58 0.10 94 1000.5
20260508170536 12 0 0.0 0.0 0.00 0.58 0.10 94 1000.5
20260508170048 12 0 0.0 0.0 0.00 0.58 0.10 94 1000.6
20260508165535 12 0 0.0 0.0 0.00 0.58 0.10 94 1000.6
20260508165036 12 0 0.0 0.0 0.00 0.58 0.10 94 1000.5
20260508164547 12 0 0.0 0.0 0.00 0.58 0.10 94 1000.5
20260508164040 12 0 0.0 0.0 0.00 0.58 0.10 94 1000.6
20260508163538 11 0 0.0 0.0 0.00 0.58 0.10 94 1000.6
20260508163049 12 0 0.0 0.0 0.00 0.58 0.10 94 1000.6
20260508162538 12 0 0.0 0.0 0.00 0.58 0.10 94 1000.5
20260508162039 11 0 0.0 0.0 0.00 0.58 0.10 93 1000.4
20260508161546 11 0 0.0 0.0 0.00 0.58 0.10 93 1000.5
20260508161038 11 0 0.0 0.0 0.00 0.58 0.10 93 1000.4
20260508160543 12 0 0.0 0.0 0.00 0.58 0.10 93 1000.4
20260508160105 12 0 0.0 0.0 0.00 0.58 0.10 93 1000.5
20260508155541 12 0 0.0 0.0 0.00 0.58 0.10 92 1000.6
20260508155038 12 0 0.0 0.0 0.00 0.58 0.10 93 1000.7
20260508154553 12 0 0.0 0.0 0.00 0.58 0.10 93 1000.6
20260508154038 12 0 0.0 1.6 0.00 0.58 0.10 93 1000.8
20260508153539 13 0 0.0 1.6 0.00 0.58 0.10 93 1000.8
20260508153048 13 0 0.0 1.6 0.00 0.58 0.10 93 1000.9
20260508152538 13 0 0.0 1.6 0.00 0.58 0.10 93 1000.9
20260508152038 13 0 0.0 1.6 0.00 0.58 0.10 92 1001.1
20260508151549 13 0 0.0 0.0 0.00 0.58 0.10 92 1001.1
20260508151039 13 0 0.0 0.0 0.00 0.58 0.10 92 1001.1
20260508150539 13 0 0.0 0.0 0.00 0.58 0.10 92 1001.3
20260508150049 13 0 0.0 0.0 0.00 0.58 0.10 92 1001.3
20260508145539 13 0 0.0 0.0 0.00 0.58 0.10 91 1001.5
20260508145039 13 0 0.0 1.6 0.00 0.58 0.10 91 1001.6
20260508144551 13 0 0.0 1.6 0.00 0.58 0.10 91 1001.6
20260508144039 14 0 0.0 3.2 0.00 0.58 0.10 91 1001.6
20260508143541 14 0 0.0 3.2 0.00 0.58 0.10 91 1001.6
20260508143105 14 0 0.0 9.7 0.00 0.58 0.10 91 1001.7
20260508142539 14 261 1.6 9.7 0.00 0.58 0.10 91 1001.6
20260508142039 14 274 4.8 9.7 0.00 0.58 0.10 91 1001.6
20260508141555 14 238 1.6 8.0 0.00 0.58 0.10 90 1001.5
20260508141039 14 222 3.2 6.4 0.00 0.58 0.10 90 1001.4
20260508140538 14 278 3.2 11.3 0.00 0.58 0.10 90 1001.4
20260508140050 14 230 3.2 12.9 0.00 0.58 0.10 90 1001.3
20260508135542 14 243 4.8 12.9 0.00 0.58 0.10 91 1001.3
20260508135038 14 228 4.8 12.9 0.00 0.58 0.10 91 1001.4
20260508134545 14 240 3.2 12.9 0.00 0.58 0.10 91 1001.4
20260508134040 14 283 4.8 11.3 0.00 0.58 0.10 91 1001.5
20260508133540 15 242 4.8 12.9 0.00 0.58 0.10 91 1001.5
20260508133053 15 287 6.4 12.9 0.00 0.58 0.10 92 1001.5
20260508132539 15 315 4.8 11.3 0.00 0.58 0.10 92 1001.5
20260508132039 15 252 4.8 11.3 0.00 0.58 0.10 92 1001.5
20260508131548 15 249 6.4 16.1 0.00 0.58 0.10 92 1001.6
20260508131039 15 246 6.4 16.1 0.05 0.58 0.10 92 1001.5
20260508130538 15 288 6.4 16.1 0.08 0.58 0.10 91 1001.5
20260508130054 15 284 6.4 16.1 0.10 0.58 0.10 91 1001.5
20260508125539 15 300 4.8 20.9 0.13 0.58 0.10 91 1001.4
20260508125039 15 289 9.7 20.9 0.15 0.58 0.10 91 1001.4
20260508124548 15 272 11.3 20.9 0.18 0.58 0.10 92 1001.3
20260508124038 15 300 11.3 20.9 0.23 0.58 0.10 92 1001.4
20260508123539 14 254 12.9 20.9 0.25 0.58 0.10 93 1001.5
20260508123046 14 261 12.9 22.5 0.28 0.56 0.08 93 1001.6
20260508122539 14 270 14.5 41.8 0.38 0.56 0.08 93 1001.5
20260508122040 14 274 16.1 41.8 0.41 0.56 0.08 94 1001.4
20260508121600 13 269 19.3 41.8 0.41 0.56 0.08 94 1001.4
20260508121041 13 300 17.7 37.0 0.38 0.53 0.05 94 1001.6
20260508120539 13 283 17.7 29.0 0.36 0.48 0.00 94 1001.7
20260508120046 13 263 14.5 30.6 0.33 0.46 0.00 94 1001.8
20260508115543 14 264 14.5 30.6 0.33 0.46 0.46 94 1001.9
20260508115038 14 311 16.1 27.4 0.28 0.41 0.41 94 1002.0
20260508114547 14 298 14.5 35.4 0.25 0.36 0.36 93 1002.0
20260508114039 15 302 17.7 35.4 0.23 0.36 0.36 93 1002.2
20260508113539 15 349 19.3 35.4 0.20 0.33 0.33 92 1002.0
20260508113055 16 250 11.3 19.3 0.15 0.28 0.28 93 1001.9
20260508112539 16 244 9.7 12.9 0.03 0.15 0.15 92 1001.8
20260508112041 16 230 4.8 6.4 0.03 0.15 0.15 92 1001.3
20260508111546 16 181 0.0 6.4 0.03 0.15 0.15 92 1000.9
20260508111040 16 181 0.0 6.4 0.00 0.13 0.13 92 1000.8
20260508110539 16 146 0.0 3.2 0.00 0.13 0.13 91 1000.9
20260508110052 16 144 0.0 1.6 0.00 0.13 0.13 91 1001.0
20260508105539 16 144 0.0 1.6 0.00 0.10 0.10 91 1001.1
20260508105039 16 0 0.0 1.6 0.03 0.10 0.10 91 1001.4
20260508104549 16 0 0.0 1.6 0.08 0.10 0.10 90 1001.5
20260508104040 16 218 0.0 1.6 0.08 0.10 0.10 90 1001.5
20260508103539 16 0 0.0 1.6 0.10 0.10 0.10 89 1001.5
20260508103051 16 232 0.0 1.6 0.10 0.10 0.10 89 1001.4
20260508102539 16 0 0.0 1.6 0.10 0.10 0.10 88 1001.6
20260508102039 16 0 0.0 1.6 0.10 0.10 0.10 87 1001.6
20260508101546 17 0 0.0 12.9 0.10 0.10 0.10 87 1001.6
20260508101040 17 232 0.0 12.9 0.10 0.10 0.10 86 1001.8
20260508100538 17 231 3.2 14.5 0.10 0.10 0.10 86 1001.8
20260508100048 17 261 3.2 14.5 0.10 0.10 0.10 85 1001.9
20260508095541 17 15 6.4 16.1 0.10 0.10 0.10 83 1001.9
20260508095040 18 61 6.4 16.1 0.08 0.08 0.08 81 1001.9
20260508094554 18 69 1.6 12.9 0.03 0.03 0.03 80 1001.9
20260508094039 18 230 3.2 8.0 0.00 0.00 0.00 80 1001.9
20260508093539 18 268 0.0 9.7 0.00 0.00 0.00 79 1001.7
20260508093042 18 237 1.6 9.7 0.00 0.00 0.00 78 1001.8
20260508092538 18 83 3.2 16.1 0.00 0.00 0.00 77 1001.9
20260508092039 18 0 3.2 16.1 0.00 0.00 0.00 77 1001.8
20260508091555 18 256 3.2 14.5 0.00 0.00 0.00 76 1001.6
20260508091039 18 32 4.8 22.5 0.00 0.00 0.00 76 1001.9
20260508090539 18 242 8.0 25.7 0.00 0.00 0.00 76 1002.1
20260508090047 19 335 6.4 25.7 0.00 0.00 0.00 75 1002.4
20260508085538 19 329 8.0 25.7 0.00 0.00 0.00 75 1002.4
20260508085038 18 46 4.8 14.5 0.00 0.00 0.00 75 1001.9
20260508084548 18 292 3.2 11.3 0.00 0.00 0.00 76 1001.9
20260508084039 18 94 3.2 11.3 0.00 0.00 0.00 77 1001.9
20260508083538 18 287 4.8 14.5 0.00 0.00 0.00 77 1001.3
20260508083124 18 79 3.2 14.5 0.00 0.00 0.00 77 1001.2
20260508082539 18 73 1.6 16.1 0.00 0.00 0.00 77 1001.6
20260508082110 18 62 1.6 16.1 0.00 0.00 0.00 76 1001.6
20260508081548 18 57 1.6 12.9 0.00 0.00 0.00 75 1001.9
20260508081038 18 265 3.2 8.0 0.00 0.00 0.00 75 1002.0
20260508080538 18 186 1.6 14.5 0.00 0.00 0.00 75 1002.0
20260508080054 18 71 3.2 14.5 0.00 0.00 0.00 75 1002.1
20260508075535 18 70 3.2 11.3 0.00 0.00 0.00 76 1002.5
20260508075038 18 138 1.6 9.7 0.00 0.00 0.00 75 1002.7
20260508074548 18 234 3.2 14.5 0.00 0.00 0.00 75 1002.8
20260508074035 18 244 3.2 14.5 0.00 0.00 0.00 75 1002.8
20260508073539 18 86 3.2 17.7 0.00 0.00 0.00 75 1003.0
20260508073059 18 336 3.2 17.7 0.00 0.00 0.00 76 1003.2
20260508072535 18 270 4.8 11.3 0.00 0.00 0.00 76 1003.2
20260508072035 18 102 3.2 11.3 0.00 0.00 0.00 76 1003.5
20260508071549 18 84 1.6 6.4 0.00 0.00 0.00 76 1003.5
20260508071035 18 236 1.6 4.8 0.00 0.00 0.00 75 1003.5
20260508070536 18 225 1.6 4.8 0.00 0.00 0.00 75 1003.5
20260508070046 18 71 0.0 4.8 0.00 0.00 0.00 75 1003.4
20260508065539 18 76 1.6 4.8 0.00 0.00 0.00 74 1003.4
20260508065035 18 242 1.6 8.0 0.00 0.00 0.00 73 1003.4
20260508064601 18 5 3.2 9.7 0.00 0.00 0.00 72 1003.2
20260508064039 18 0 0.0 16.1 0.00 0.00 0.00 71 1003.3
20260508063539 18 0 1.6 16.1 0.00 0.00 0.00 71 1003.4
20260508063048 18 289 1.6 17.7 0.00 0.00 0.00 71 1003.3
20260508062535 18 181 4.8 17.7 0.00 0.00 0.00 70 1003.5
20260508062035 18 221 3.2 17.7 0.00 0.00 0.00 70 1003.3
20260508061547 18 72 4.8 17.7 0.00 0.00 0.00 71 1003.3
20260508061036 18 46 3.2 14.5 0.00 0.00 0.00 71 1003.5
20260508060539 18 236 3.2 12.9 0.00 0.00 0.00 72 1003.5
20260508060046 18 85 1.6 12.9 0.00 0.00 0.00 72 1003.8
20260508055538 18 42 1.6 14.5 0.00 0.00 0.00 73 1003.9
20260508055035 18 51 4.8 17.7 0.00 0.00 0.00 73 1004.0
20260508054554 17 280 4.8 17.7 0.00 0.00 0.00 74 1004.1
20260508054038 17 92 4.8 12.9 0.00 0.00 0.00 76 1004.1
20260508053535 17 296 3.2 12.9 0.00 0.00 0.00 77 1004.3
20260508053050 17 224 3.2 12.9 0.00 0.00 0.00 78 1004.4
20260508052539 16 227 1.6 8.0 0.00 0.00 0.00 79 1004.6
20260508052038 16 0 1.6 4.8 0.00 0.00 0.00 80 1004.8
20260508051539 16 0 0.0 3.2 0.00 0.00 0.00 81 1004.7
20260508051039 16 0 0.0 3.2 0.00 0.00 0.00 83 1004.9
20260508050539 16 0 0.0 1.6 0.00 0.00 0.00 84 1004.9
20260508050052 16 0 0.0 0.0 0.00 0.00 0.00 83 1005.2
20260508045539 17 0 0.0 1.6 0.00 0.00 0.00 83 1005.2
20260508045040 17 0 0.0 1.6 0.00 0.00 0.00 83 1005.2
20260508044546 17 0 0.0 1.6 0.00 0.00 0.00 82 1005.2
20260508044041 17 0 0.0 1.6 0.00 0.00 0.00 82 1005.3
20260508043538 17 0 0.0 1.6 0.00 0.00 0.00 82 1005.4
20260508043046 17 0 0.0 1.6 0.00 0.00 0.00 81 1005.5
20260508042542 17 82 0.0 1.6 0.00 0.00 0.00 81 1005.6
20260508042038 17 82 0.0 1.6 0.00 0.00 0.00 80 1005.7
20260508041544 17 82 0.0 3.2 0.00 0.00 0.00 79 1005.7
20260508041039 17 84 0.0 3.2 0.00 0.00 0.00 79 1005.6
20260508040539 17 89 1.6 3.2 0.00 0.00 0.00 79 1005.8
20260508040043 18 88 1.6 6.4 0.00 0.00 0.00 79 1005.8
20260508035539 17 88 0.0 6.4 0.00 0.00 0.00 79 1006.0
20260508035039 17 84 1.6 4.8 0.00 0.00 0.00 79 1006.3
20260508034553 17 79 1.6 4.8 0.00 0.00 0.00 79 1006.3
20260508034038 17 84 1.6 4.8 0.00 0.00 0.00 80 1006.5
20260508033538 17 86 0.0 4.8 0.00 0.00 0.00 80 1006.7
20260508033046 17 99 0.0 3.2 0.00 0.00 0.00 80 1006.7
20260508032539 17 99 0.0 3.2 0.00 0.00 0.00 80 1006.8
20260508032042 17 98 0.0 1.6 0.00 0.00 0.00 80 1006.9
20260508031546 17 98 0.0 3.2 0.00 0.00 0.00 79 1007.0
20260508031039 18 97 0.0 3.2 0.00 0.00 0.00 78 1007.0
20260508030538 18 0 1.6 4.8 0.00 0.00 0.00 77 1007.1
20260508030056 18 88 1.6 4.8 0.00 0.00 0.00 75 1007.1
20260508025538 18 84 3.2 4.8 0.00 0.00 0.00 74 1007.1
20260508025038 18 0 0.0 3.2 0.00 0.00 0.00 74 1007.2
20260508024600 18 77 0.0 6.4 0.00 0.00 0.00 72 1007.5
20260508024039 18 0 0.0 9.7 0.00 0.00 0.00 72 1007.5
20260508023539 18 58 0.0 9.7 0.00 0.00 0.00 72 1007.8
20260508023052 19 340 1.6 6.4 0.00 0.00 0.00 72 1007.8
20260508022539 19 60 3.2 6.4 0.00 0.00 0.00 72 1008.0